• In Lithuania
  • List of Countries
  • For 7 days
  • Water Temperature
  • Satellite Maps
  • Weather Map
  • Weather Widgets
  • user-avatar
    Login

    Hourly Weather Shaki

    Today, 23 May, Wednesday

    Time Temperature Precipitation Wind Pressure Humidity
    00:00 +21°C° 0 mm 2 mps 739 mmHg 39%
    01:00 +21°C° 0 mm 2 mps 739 mmHg 38%
    02:00 +20°C° 0 mm 2 mps 739 mmHg 38%
    03:00 +20°C° 0 mm 2 mps 738 mmHg 38%
    04:00 +22°C° 0 mm 1 mps 739 mmHg 38%
    05:00 +23°C° 0 mm 1 mps 739 mmHg 38%
    06:00 +23°C° 0 mm 1 mps 739 mmHg 39%
    07:00 +25°C° 0 mm 2 mps 739 mmHg 34%
    08:00 +27°C° 0 mm 2 mps 739 mmHg 29%
    09:00 +29°C° 0 mm 3 mps 739 mmHg 23%
    10:00 +30°C° 0 mm 3 mps 739 mmHg 22%
    11:00 +32°C° 0 mm 4 mps 739 mmHg 21%
    12:00 +33°C° 0 mm 4 mps 739 mmHg 20%
    13:00 +33°C° 0 mm 5 mps 739 mmHg 20%
    14:00 +33°C° 0 mm 5 mps 738 mmHg 19%
    15:00 +33°C° 0 mm 5 mps 738 mmHg 19%
    16:00 +32°C° 0 mm 5 mps 738 mmHg 22%
    17:00 +30°C° 0 mm 5 mps 738 mmHg 24%
    18:00 +29°C° 0 mm 4 mps 737 mmHg 27%
    19:00 +27°C° 0 mm 4 mps 738 mmHg 28%
    20:00 +25°C° 0 mm 3 mps 738 mmHg 28%
    21:00 +22°C° 0 mm 3 mps 738 mmHg 29%
    22:00 +22°C° 0 mm 3 mps 738 mmHg 28%
    23:00 +21°C° 0 mm 3 mps 738 mmHg 26%

    Tomorrow, 24 May, Thursday

    Time Temperature Precipitation Wind Pressure Humidity
    00:00 +20°C° 0 mm 3 mps 738 mmHg 25%
    01:00 +20°C° 0 mm 3 mps 737 mmHg 22%
    02:00 +20°C° 0 mm 3 mps 737 mmHg 19%
    03:00 +20°C° 0 mm 3 mps 737 mmHg 16%
    04:00 +20°C° 0 mm 3 mps 737 mmHg 20%
    05:00 +21°C° 0 mm 2 mps 737 mmHg 23%
    06:00 +23°C° 0 mm 2 mps 737 mmHg 26%
    07:00 +25°C° 0 mm 2 mps 737 mmHg 23%
    08:00 +27°C° 0 mm 2 mps 736 mmHg 20%
    09:00 +29°C° 0 mm 2 mps 736 mmHg 17%
    10:00 +30°C° 0 mm 3 mps 736 mmHg 17%
    11:00 +31°C° 0 mm 3 mps 736 mmHg 17%
    12:00 +33°C° 0 mm 3 mps 735 mmHg 16%
    13:00 +33°C° 0 mm 3 mps 735 mmHg 16%
    14:00 +33°C° 0 mm 4 mps 734 mmHg 17%
    15:00 +34°C° 0 mm 4 mps 734 mmHg 17%
    16:00 +33°C° 0 mm 4 mps 734 mmHg 20%
    17:00 +30°C° 0 mm 4 mps 733 mmHg 23%
    18:00 +29°C° 0 mm 3 mps 733 mmHg 25%
    19:00 +27°C° 0 mm 3 mps 733 mmHg 25%
    20:00 +26°C° 0 mm 3 mps 733 mmHg 25%
    21:00 +24°C° 0 mm 3 mps 733 mmHg 25%
    22:00 +23°C° 0 mm 2 mps 733 mmHg 24%
    23:00 +23°C° 0 mm 2 mps 733 mmHg 24%

    Day after tomorrow, 25 May, Friday

    Time Temperature Precipitation Wind Pressure Humidity
    00:00 +23°C° 0 mm 2 mps 732 mmHg 23%
    01:00 +21°C° 0 mm 2 mps 732 mmHg 25%
    02:00 +21°C° 0 mm 2 mps 732 mmHg 26%
    03:00 +20°C° 0 mm 2 mps 732 mmHg 28%
    04:00 +21°C° 0 mm 2 mps 732 mmHg 30%
    05:00 +23°C° 0 mm 2 mps 731 mmHg 32%
    06:00 +23°C° 0 mm 2 mps 731 mmHg 35%
    07:00 +25°C° 0 mm 2 mps 731 mmHg 31%
    08:00 +27°C° 0 mm 2 mps 731 mmHg 28%
    09:00 +29°C° 0 mm 2 mps 731 mmHg 24%
    10:00 +30°C° 0 mm 2 mps 731 mmHg 24%
    11:00 +31°C° 0 mm 2 mps 731 mmHg 23%
    12:00 +31°C° 0 mm 2 mps 731 mmHg 23%
    13:00 +32°C° 0 mm 2 mps 730 mmHg 23%
    14:00 +32°C° 0 mm 2 mps 730 mmHg 23%
    15:00 +32°C° 0 mm 1 mps 730 mmHg 23%
    16:00 +31°C° 0 mm 1 mps 730 mmHg 26%
    17:00 +30°C° 0 mm 1 mps 730 mmHg 29%
    18:00 +29°C° 0 mm 1 mps 729 mmHg 31%
    19:00 +28°C° 0 mm 1 mps 730 mmHg 32%
    20:00 +26°C° 0 mm 2 mps 730 mmHg 32%
    21:00 +25°C° 0 mm 2 mps 731 mmHg 33%
    22:00 +24°C° 0 mm 2 mps 730 mmHg 33%
    23:00 +24°C° 0 mm 2 mps 730 mmHg 33%

    26 May, Saturday

    Time Temperature Precipitation Wind Pressure Humidity
    00:00 +23°C° 0 mm 2 mps 730 mmHg 33%
    01:00 +23°C° 0 mm 2 mps 730 mmHg 33%
    02:00 +23°C° 0 mm 2 mps 731 mmHg 34%
    03:00 +23°C° 0 mm 2 mps 731 mmHg 35%
    04:00 +23°C° 0 mm 2 mps 731 mmHg 36%
    05:00 +24°C° 0 mm 2 mps 731 mmHg 38%
    06:00 +24°C° 0 mm 2 mps 731 mmHg 39%
    07:00 +26°C° 0 mm 2 mps 731 mmHg 36%
    08:00 +27°C° 0 mm 3 mps 731 mmHg 34%
    09:00 +29°C° 0 mm 3 mps 732 mmHg 31%
    10:00 +30°C° 0 mm 3 mps 732 mmHg 30%
    11:00 +30°C° 0 mm 2 mps 732 mmHg 29%
    12:00 +31°C° 0 mm 2 mps 732 mmHg 29%
    13:00 +31°C° 0.1 mm 2 mps 732 mmHg 29%
    14:00 +31°C° 0.1 mm 2 mps 732 mmHg 30%
    15:00 +31°C° 0.1 mm 2 mps 732 mmHg 30%
    16:00 +30°C° 0.2 mm 2 mps 732 mmHg 33%
    17:00 +29°C° 0.2 mm 2 mps 733 mmHg 36%
    18:00 +29°C° 0.2 mm 2 mps 733 mmHg 39%
    19:00 +27°C° 0.1 mm 2 mps 734 mmHg 41%
    20:00 +26°C° 0.1 mm 2 mps 735 mmHg 44%
    21:00 +24°C° 0.1 mm 2 mps 735 mmHg 47%
    22:00 +23°C° 0.5 mm 2 mps 736 mmHg 56%
    23:00 +23°C° 0.5 mm 2 mps 736 mmHg 65%

    27 May, Sunday

    Time Temperature Precipitation Wind Pressure Humidity
    00:00 +21°C° 0.5 mm 2 mps 736 mmHg 74%
    01:00 +20°C° 0.4 mm 2 mps 736 mmHg 77%
    02:00 +20°C° 0.4 mm 2 mps 737 mmHg 80%
    03:00 +20°C° 0.4 mm 3 mps 737 mmHg 83%
    04:00 +19°C° 0.4 mm 3 mps 737 mmHg 82%
    05:00 +19°C° 0.4 mm 3 mps 738 mmHg 80%
    06:00 +19°C° 0.4 mm 4 mps 738 mmHg 79%
    07:00 +19°C° 0.1 mm 4 mps 739 mmHg 76%
    08:00 +19°C° 0.1 mm 5 mps 739 mmHg 73%
    09:00 +19°C° 0.1 mm 5 mps 739 mmHg 70%
    10:00 +20°C° 0 mm 5 mps 739 mmHg 66%
    11:00 +21°C° 0 mm 5 mps 740 mmHg 63%
    12:00 +22°C° 0 mm 5 mps 740 mmHg 59%
    13:00 +22°C° 0 mm 5 mps 740 mmHg 58%
    14:00 +22°C° 0 mm 5 mps 740 mmHg 57%
    15:00 +23°C° 0 mm 5 mps 739 mmHg 56%
    16:00 +22°C° 0 mm 4 mps 740 mmHg 58%
    17:00 +22°C° 0 mm 4 mps 740 mmHg 60%
    18:00 +21°C° 0 mm 4 mps 740 mmHg 62%
    19:00 +20°C° 0 mm 4 mps 740 mmHg 66%
    20:00 +19°C° 0 mm 3 mps 741 mmHg 70%
    21:00 +18°C° 0 mm 3 mps 741 mmHg 74%
    22:00 +18°C° 0 mm 3 mps 741 mmHg 76%
    23:00 +17°C° 0 mm 3 mps 741 mmHg 78%

    28 May, Monday

    Time Temperature Precipitation Wind Pressure Humidity
    00:00 +17°C° 0 mm 2 mps 741 mmHg 80%
    01:00 +16°C° 0 mm 2 mps 741 mmHg 81%
    02:00 +16°C° 0 mm 2 mps 740 mmHg 81%
    03:00 +16°C° 0 mm 1 mps 740 mmHg 82%
    04:00 +16°C° 0 mm 1 mps 740 mmHg 78%
    05:00 +18°C° 0 mm 1 mps 740 mmHg 75%
    06:00 +19°C° 0 mm 1 mps 740 mmHg 72%
    07:00 +20°C° 0 mm 1 mps 740 mmHg 67%
    08:00 +21°C° 0 mm 2 mps 740 mmHg 62%
    09:00 +23°C° 0 mm 2 mps 740 mmHg 57%
    10:00 +24°C° 0 mm 2 mps 739 mmHg 54%
    11:00 +26°C° 0 mm 3 mps 739 mmHg 50%
    12:00 +27°C° 0 mm 3 mps 738 mmHg 47%
    13:00 +27°C° 0 mm 3 mps 738 mmHg 45%
    14:00 +28°C° 0 mm 3 mps 737 mmHg 44%
    15:00 +28°C° 0 mm 3 mps 737 mmHg 43%
    16:00 +28°C° 0 mm 3 mps 737 mmHg 46%
    17:00 +27°C° 0 mm 3 mps 736 mmHg 48%
    18:00 +26°C° 0 mm 3 mps 736 mmHg 51%
    19:00 +25°C° 0 mm 3 mps 736 mmHg 56%
    20:00 +24°C° 0 mm 3 mps 736 mmHg 61%
    21:00 +21°C° 0 mm 3 mps 736 mmHg 66%
    22:00 +20°C° 0 mm 3 mps 736 mmHg 67%
    23:00 +20°C° 0 mm 2 mps 735 mmHg 69%
    Show more